Waarnemingen

Advertentie
Mijn weer
Avignon, Frankrijk (7563): temperatuur & dauwpunt: 17.07.2017 10:00:00 - 23.07.2017 10:00:00 (CEST)Avignon, Frankrijk (7563): temperatuur 5cm: 17.07.2017 10:00:00 - 23.07.2017 10:00:00 (CEST)Avignon, Frankrijk (7563): windsnelheid & windstoten: 17.07.2017 10:00:00 - 23.07.2017 10:00:00 (CEST)Avignon, Frankrijk (7563): windrichting: 17.07.2017 10:00:00 - 23.07.2017 10:00:00 (CEST)Avignon, Frankrijk (7563): luchtdruk: 17.07.2017 10:00:00 - 23.07.2017 10:00:00 (CEST)Avignon, Frankrijk (7563): zicht: 17.07.2017 10:00:00 - 23.07.2017 10:00:00 (CEST)Avignon, Frankrijk (7563): neerslag: 17.07.2017 10:00:00 - 23.07.2017 10:00:00 (CEST)
Datum & Tijd tt [°C] td [°C] tt 5cm [°C] ff [km/u] ff [kn] fx [km/u] fx [kn] dd ppp [hPa] vv [km] rr [mm]
23.07.2017 10:00:00 26,0 16,5 30,2 13 7 20 11 NNW 1017,5 60 0,0
23.07.2017 09:00:00 23,8 16,8 25,2 10 5 16 9 NNW 1017,9 38 0,0
23.07.2017 08:00:00 21,5 17,7 19,3 10 5 18 10 N 1017,7 23 0,0
23.07.2017 07:00:00 19,5 18,0 16,5 7 4 10 5 NNW 1017,8 17 0,0
23.07.2017 06:00:00 19,2 17,9 17,0 6 3 7 4 N 1017,5 7 0,0
23.07.2017 05:00:00 19,9 18,0 17,2 4 2 6 3 NNW 1017,1 11 0,0
23.07.2017 04:00:00 20,3 17,9 18,1 0 0 4 2 N 1017,3 18 0,0
23.07.2017 03:00:00 20,0 17,8 17,4 3 2 5 3 NO 1017,4 17 0,0
23.07.2017 02:00:00 20,5 18,1 18,1 0 0 5 3 N 1017,5 16 0,0
23.07.2017 01:00:00 21,5 18,1 19,0 3 2 6 4 ZO 1017,3 23 0,0
23.07.2017 00:00:00 22,5 18,1 20,6 4 2 8 5 ZZO 1017,2 27 0,0
22.07.2017 23:00:00 23,5 17,9 22,0 2 1 15 8 ZW 1016,8 28 0,0
22.07.2017 22:00:00 24,5 17,5 22,1 10 5 14 8 ZZW 1015,6 42 0,0
22.07.2017 21:00:00 25,8 17,2 25,4 10 5 19 10 Z 1014,8 47 0,0
22.07.2017 20:00:00 27,3 17,5 28,3 15 8 24 13 Z 1014,1 18 0,0
22.07.2017 19:00:00 28,3 17,2 30,0 16 9 35 19 Z 1013,9 43 0,0
22.07.2017 18:00:00 29,8 17,6 34,5 23 13 36 19 Z 1013,8 45 0,0
22.07.2017 17:00:00 31,0 17,3 36,0 21 12 39 21 ZZW 1013,9 50 0,0
22.07.2017 16:00:00 32,0 17,9 33,9 21 11 39 21 ZZW 1013,8 60 0,0
22.07.2017 15:00:00 31,1 17,8 34,8 22 12 39 21 Z 1013,5 20 0,0
22.07.2017 14:00:00 32,6 15,1 35,4 19 10 34 18 Z 1013,5 20 0,0
22.07.2017 13:00:00 31,5 16,3 38,3 14 8 28 15 Z 1013,5 20 0,0
22.07.2017 12:00:00 29,7 16,8 37,1 9 5 17 9 ZZW 1014,0 53 0,0
22.07.2017 11:00:00 28,1 16,7 35,0 6 3 13 7 WNW 1014,2 48 0,0
22.07.2017 10:00:00 25,7 17,1 31,2 6 3 11 6 NNW 1014,3 7 0,0
22.07.2017 09:00:00 23,6 16,6 26,4 4 2 8 4 NO 1014,2 28 0,0
22.07.2017 08:00:00 21,6 15,7 18,8 0 0 11 6 N 1013,9 26 0,0
22.07.2017 07:00:00 19,1 15,2 16,6 6 4 14 8 O 1013,9 26 0,0
22.07.2017 06:00:00 17,9 15,5 15,7 6 4 11 6 NO 1013,9 20 0,0
22.07.2017 05:00:00 18,2 16,2 15,8 0 0 6 4 N 1013,8 20 0,0
22.07.2017 04:00:00 18,1 15,9 15,6 3 2 5 3 ONO 1013,4 21 0,0
22.07.2017 03:00:00 19,0 16,8 15,8 0 0 5 3 N 1013,4 25 0,0
22.07.2017 02:00:00 19,4 15,9 16,6 0 0 7 4 N 1013,2 26 0,0
22.07.2017 01:00:00 20,6 17,2 17,2 4 2 6 3 N 1013,3 27 0,0
22.07.2017 00:00:00 21,0 16,0 17,5 2 1 8 5 WNW 1012,8 32 0,0
21.07.2017 23:00:00 22,4 16,7 19,5 5 3 10 5 N 1012,5 34 0,0
21.07.2017 22:00:00 25,0 16,7 22,6 6 3 10 5 WZW 1011,8 32 0,0
21.07.2017 21:00:00 26,7 16,6 25,9 7 4 13 7 W 1011,1 40 0,0
21.07.2017 20:00:00 29,0 15,9 30,9 6 3 17 9 W 1010,8 53 0,0
21.07.2017 19:00:00 28,7 16,6 29,5 10 5 20 11 W 1010,4 49 0,0
21.07.2017 18:00:00 29,4 15,5 31,3 6 4 21 12 WZW 1010,3 59 0,0
21.07.2017 17:00:00 28,4 16,3 30,0 16 9 36 19 WZW 1010,7 49 0,0
21.07.2017 16:00:00 30,0 17,5 32,2 24 13 40 22 WZW 1010,9 20 0,0
21.07.2017 15:00:00 30,5 18,6 33,7 25 14 38 20 WZW 1011,2 31 0,0
21.07.2017 14:00:00 31,1 17,8 34,2 13 7 29 16 ZW 1011,2 36 0,0
21.07.2017 13:00:00 29,6 16,8 33,4 5 3 17 9 W 1011,6 10 0,0
21.07.2017 12:00:00 28,0 16,0 30,1 9 5 20 11 WNW 1011,9 20 0,0
21.07.2017 11:00:00 27,6 14,9 28,6 8 4 13 7 Z 1012,0 49 0,0
21.07.2017 10:00:00 25,0 15,3 27,2 3 1 12 6 Z 1012,2 20 0,0
21.07.2017 09:00:00 23,2 15,8 25,0 6 4 14 8 N 1012,0 50 0,0
21.07.2017 08:00:00 21,5 15,1 18,4 6 3 13 7 N 1011,9 54 0,0
21.07.2017 07:00:00 18,4 15,1 16,3 0 0 5 3 N 1011,4 20 0,0
21.07.2017 06:00:00 19,0 15,1 17,2 0 0 9 5 N 1011,4 3,4 0,0
21.07.2017 05:00:00 20,6 15,8 18,5 6 4 14 8 N 1011,2 59 0,0
21.07.2017 04:00:00 21,8 16,3 20,0 11 6 20 11 N 1011,6 60 0,0
21.07.2017 03:00:00 22,1 16,4 20,8 10 6 21 11 N 1012,0 60 0,0
21.07.2017 02:00:00 22,5 16,8 17,5 13 7 18 10 N 1012,2 60 0,0
21.07.2017 01:00:00 21,3 14,9 17,5 4 2 9 5 N 1012,3 60 0,0
21.07.2017 00:00:00 21,4 11,1 17,6 0 0 10 5 N 1012,4 60 0,0
20.07.2017 23:00:00 21,4 10,5 18,2 0 0 8 4 N 1012,9 60 0,0
20.07.2017 22:00:00 24,4 9,2 21,1 6 3 12 6 Z 1012,3 19 0,0
20.07.2017 21:00:00 27,4 8,8 26,4 10 5 23 13 ZW 1012,0 60 0,0
20.07.2017 20:00:00 29,5 9,1 31,4 14 8 30 16 ZW 1011,6 55 0,0
20.07.2017 19:00:00 31,1 11,0 32,3 17 9 29 15 WZW 1011,4 37 0,0
20.07.2017 18:00:00 31,0 13,3 33,0 19 10 29 16 ZW 1011,7 52 0,0
20.07.2017 17:00:00 32,9 12,5 35,3 13 7 23 12 WZW 1012,0 60 0,0
20.07.2017 16:00:00 31,8 11,6 34,7 9 5 21 11 W 1012,3 60 0,0
20.07.2017 15:00:00 31,4 12,7 40,2 10 5 23 13 WNW 1012,6 60 0,0
20.07.2017 14:00:00 31,0 14,2 39,1 8 4 29 16 NNW 1013,3 60 0,0
20.07.2017 13:00:00 28,8 13,5 37,2 9 5 19 10 NW 1013,9 20 0,0
20.07.2017 12:00:00 26,9 15,0 34,4 11 6 19 10 NNW 1014,2 60 0,0
20.07.2017 11:00:00 24,8 15,4 29,8 9 5 21 11 NNW 1014,7 47 0,0
20.07.2017 10:00:00 22,8 15,9 25,8 13 7 22 12 N 1014,9 38 0,0
20.07.2017 09:00:00 21,0 16,6 19,8 14 8 24 13 NNW 1014,8 30 0,0
20.07.2017 08:00:00 20,4 15,8 18,1 15 8 24 13 N 1014,3 51 0,0
20.07.2017 07:00:00 19,8 15,2 17,4 7 4 19 11 OZO 1014,4 55 0,2
20.07.2017 06:00:00 20,0 15,8 17,7 10 5 30 16 ONO 1015,9 17 0,4
20.07.2017 05:00:00 20,7 15,7 19,9 22 12 35 19 N 1017,0 54 0,0
20.07.2017 04:00:00 22,5 18,1 21,8 8 5 24 13 N 1017,0 19 0,0
20.07.2017 03:00:00 22,6 16,8 19,9 15 8 22 12 NW 1016,6 47 0,0
20.07.2017 02:00:00 21,0 17,6 19,8 3 2 10 5 N 1014,4 35 0,0
20.07.2017 01:00:00 20,6 17,0 18,8 3 2 9 5 N 1014,6 37 0,0
20.07.2017 00:00:00 20,9 16,3 18,6 6 3 9 5 O 1014,5 49 0,0
19.07.2017 23:00:00 21,4 16,1 19,8 3 2 8 4 N 1015,3 48 0,0
19.07.2017 22:00:00 23,3 15,9 22,1 6 4 19 11 Z 1015,3 60 0,0
19.07.2017 21:00:00 24,9 13,8 24,6 9 5 24 13 ZZO 1015,3 60 0,0
19.07.2017 20:00:00 26,8 9,6 27,0 16 9 34 19 ZZW 1015,4 60 0,0
19.07.2017 19:00:00 29,2 8,3 30,7 22 12 32 17 ZZW 1015,0 37 0,0
19.07.2017 18:00:00 31,2 7,6 34,8 24 13 38 20 ZW 1014,5 56 0,0
19.07.2017 17:00:00 31,5 9,7 33,7 22 12 33 18 WZW 1014,5 60 0,0
19.07.2017 16:00:00 32,2 9,7 34,9 22 12 31 17 Z 1015,0 60 0,0
19.07.2017 15:00:00 30,7 9,6 33,4 21 11 40 22 ZZW 1015,2 60 0,0
19.07.2017 14:00:00 31,9 8,8 38,1 20 11 32 17 Z 1016,0 22 0,0
19.07.2017 13:00:00 30,4 9,3 34,9 20 11 34 18 ZZO 1016,3 12 0,0
19.07.2017 12:00:00 28,6 11,2 30,1 19 10 27 15 Z 1017,1 18 0,0
19.07.2017 11:00:00 26,1 12,9 29,7 6 4 20 11 W 1017,8 41 0,0
19.07.2017 10:00:00 25,3 12,5 23,3 4 2 7 4 N 1017,6 20 0,0
19.07.2017 09:00:00 21,4 11,7 23,1 4 2 9 5 ONO 1017,1 45 0,0
19.07.2017 08:00:00 20,1 11,6 15,6 6 4 9 5 ZW 1017,1 54 0,0
19.07.2017 07:00:00 16,2 12,0 13,6 3 1 6 3 NO 1016,9 46 0,0
19.07.2017 06:00:00 15,8 11,2 13,6 0 0 7 4 N 1017,0 18 0,0
19.07.2017 05:00:00 15,5 11,9 13,6 4 2 6 4 N 1017,3 56 0,0
19.07.2017 04:00:00 16,6 11,9 12,8 3 1 5 3 ONO 1017,6 60 0,0
19.07.2017 03:00:00 17,5 10,8 13,5 4 2 6 3 ZZO 1017,3 60 0,0
19.07.2017 02:00:00 17,4 10,3 13,8 3 2 10 5 ZO 1017,7 60 0,0
19.07.2017 01:00:00 17,9 10,0 14,5 5 3 7 4 O 1017,8 60 0,0
19.07.2017 00:00:00 19,5 10,2 15,5 5 3 8 4 O 1017,7 60 0,0
18.07.2017 23:00:00 20,8 10,3 16,4 2 1 10 5 ZZO 1017,4 60 0,0
18.07.2017 22:00:00 22,9 9,3 18,0 3 2 11 6 ZO 1017,8 20 0,0
18.07.2017 21:00:00 25,5 9,3 24,5 8 5 17 9 ZZO 1017,0 19 0,0
18.07.2017 20:00:00 27,7 9,5 29,3 13 7 30 16 Z 1016,9 56 0,0
18.07.2017 19:00:00 29,5 10,6 33,6 19 11 32 17 Z 1016,9 55 0,0
18.07.2017 18:00:00 30,7 10,6 36,1 24 13 33 18 Z 1016,8 54 0,0
18.07.2017 17:00:00 32,1 10,7 37,8 22 12 35 19 ZZW 1016,8 20 0,0
18.07.2017 16:00:00 32,3 9,8 38,6 23 12 37 20 ZZW 1017,2 20 0,0
18.07.2017 15:00:00 32,1 9,6 39,9 22 12 34 19 Z 1017,6 52 0,0
18.07.2017 14:00:00 31,8 9,9 38,9 18 10 34 18 Z 1017,8 59 0,0
18.07.2017 13:00:00 31,3 10,1 38,1 19 10 31 17 ZZO 1018,1 60 0,0
18.07.2017 12:00:00 30,8 9,6 35,2 14 8 27 15 Z 1018,5 60 0,0
18.07.2017 11:00:00 28,6 9,3 31,8 9 5 18 10 ZZO 1019,0 60 0,0
18.07.2017 10:00:00 26,5 11,8 30,6 6 3 16 9 OZO 1019,1 60 0,0
18.07.2017 09:00:00 23,3 11,0 23,4 3 2 6 4 NNO 1019,3 60 0,0
18.07.2017 08:00:00 20,9 11,0 15,9 3 2 6 3 NNW 1019,2 59 0,0
18.07.2017 07:00:00 16,0 12,0 12,7 3 2 4 2 NNW 1019,0 59 0,0
18.07.2017 06:00:00 15,3 11,3 12,1 3 1 5 3 N 1019,0 60 0,0
18.07.2017 05:00:00 16,3 10,6 12,7 0 0 7 4 N 1018,8 60 0,0
18.07.2017 04:00:00 17,3 10,9 13,1 0 0 5 3 N 1019,1 19 0,0
18.07.2017 03:00:00 17,6 12,7 14,6 3 1 6 4 ZZW 1019,4 60 0,0
18.07.2017 02:00:00 18,1 13,0 15,2 5 3 9 5 OZO 1019,2 59 0,0
18.07.2017 01:00:00 19,0 13,6 14,4 8 4 9 5 O 1019,4 60 0,0
18.07.2017 00:00:00 19,1 13,1 15,2 0 0 4 2 N 1019,8 60 0,0
17.07.2017 23:00:00 21,5 12,3 17,3 2 1 8 5 ZZO 1019,7 60 0,0
17.07.2017 22:00:00 22,6 12,8 19,1 4 2 10 5 W 1019,5 18 0,0
17.07.2017 21:00:00 24,6 10,8 23,0 8 5 22 12 Z 1018,9 60 0,0
17.07.2017 20:00:00 28,1 10,3 30,5 15 8 31 17 ZZW 1018,8 50 0,0
17.07.2017 19:00:00 29,2 9,8 33,5 18 10 35 19 ZZW 1019,0 53 0,0
17.07.2017 18:00:00 30,2 11,2 35,1 22 12 32 17 ZW 1018,9 39 0,0
17.07.2017 17:00:00 31,9 10,6 37,4 20 11 33 18 ZZW 1018,8 39 0,0
17.07.2017 16:00:00 31,9 8,8 38,5 23 12 38 21 ZW 1018,8 48 0,0
17.07.2017 15:00:00 32,5 8,0 39,1 19 11 37 20 Z 1019,2 20 0,0
17.07.2017 14:00:00 32,6 10,6 39,4 15 8 48 26 ZW 1019,7 60 0,0
17.07.2017 13:00:00 31,3 8,9 38,0 13 7 25 14 ZO 1020,3 60 0,0
17.07.2017 12:00:00 30,3 8,7 35,5 13 7 26 14 Z 1020,8 60 0,0
17.07.2017 11:00:00 28,8 10,5 34,6 9 5 16 9 ZZO 1021,2 10 0,0
17.07.2017 10:00:00 27,4 11,0 30,9 7 4 16 9 ZO 1021,3 60 0,0

tt = temperatuur
td = dauwpunt
tt 5cm = temperatuur 5cm
ff = windsnelheid
fx = windstoten
dd = windrichting
ppp = luchtdruk
vv = zicht
rr = neerslag

Weerstations in de omgeving